Pit Above Pit 1 Powerhouse [ USA-CAL ]

Edit Gauge

Current Conditions

Reading of "n/a" = frozen gauge or gauge error.
Reading Trend Type Updated
running 0.0 r.c./hr Status 02h43m
638 cfs -19 cfs/hr Flow 02h43m

Station Description

AW Gauge ID: 48900
Source: dream
Station: 035
Enabled yes
AW thanks Chris Shackleton and Dreamflows for this data. Dreamflows data should only be analyzed in the context of the Dreamflows site. Data is often calculated and/or approximated. Please see Chris's site for a complete description of how this data should and can be interpreted. Source Gauge's Page

Information

Flow

Gauge History

Times listed in GMT 24h, ET and PT hours provided for convenience Graphs in GMT. Readings of "n/a" constitute a frozen gauge or gauge error.
Reading Updated (GMT) Eastern Pacific Comment
638.00 06/20/2018 13:58:24 Jun 20 09:58 am Jun 20 6:58 am
657.00 06/20/2018 12:58:40 Jun 20 08:58 am Jun 20 5:58 am
661.00 06/20/2018 11:58:56 Jun 20 07:58 am Jun 20 4:58 am
681.00 06/20/2018 10:59:12 Jun 20 06:59 am Jun 20 3:59 am
751.00 06/20/2018 09:59:28 Jun 20 05:59 am Jun 20 2:59 am
775.00 06/20/2018 08:59:44 Jun 20 04:59 am Jun 20 1:59 am
825.00 06/20/2018 08:00:00 Jun 20 04:00 am Jun 20 1:00 am
522.00 06/20/2018 02:59:12 Jun 19 10:59 pm Jun 19 7:59 pm
406.00 06/20/2018 01:59:28 Jun 19 09:59 pm Jun 19 6:59 pm
459.00 06/20/2018 00:59:44 Jun 19 08:59 pm Jun 19 5:59 pm
467.00 06/20/2018 00:00:00 Jun 19 08:00 pm Jun 19 5:00 pm
507.00 06/19/2018 21:58:24 Jun 19 05:58 pm Jun 19 2:58 pm
406.00 06/19/2018 20:58:40 Jun 19 04:58 pm Jun 19 1:58 pm
423.00 06/19/2018 19:58:56 Jun 19 03:58 pm Jun 19 12:58 pm
527.00 06/19/2018 18:59:12 Jun 19 02:59 pm Jun 19 11:59 am
522.00 06/19/2018 17:59:28 Jun 19 01:59 pm Jun 19 10:59 am
536.00 06/19/2018 16:59:44 Jun 19 12:59 pm Jun 19 9:59 am
563.00 06/19/2018 16:00:00 Jun 19 12:00 pm Jun 19 9:00 am
659.00 06/19/2018 12:58:40 Jun 19 08:58 am Jun 19 5:58 am
290.00 06/19/2018 00:00:00 Jun 18 08:00 pm Jun 18 5:00 pm
500.00 06/18/2018 21:58:24 Jun 18 05:58 pm Jun 18 2:58 pm
489.00 06/18/2018 20:58:40 Jun 18 04:58 pm Jun 18 1:58 pm
490.00 06/18/2018 18:59:12 Jun 18 02:59 pm Jun 18 11:59 am
499.00 06/18/2018 17:59:28 Jun 18 01:59 pm Jun 18 10:59 am
576.00 06/18/2018 16:59:44 Jun 18 12:59 pm Jun 18 9:59 am
486.00 06/18/2018 14:58:08 Jun 18 10:58 am Jun 18 7:58 am
483.00 06/18/2018 13:58:24 Jun 18 09:58 am Jun 18 6:58 am
486.00 06/18/2018 12:58:40 Jun 18 08:58 am Jun 18 5:58 am
503.00 06/18/2018 10:59:12 Jun 18 06:59 am Jun 18 3:59 am
507.00 06/18/2018 09:59:28 Jun 18 05:59 am Jun 18 2:59 am
509.00 06/18/2018 08:00:00 Jun 18 04:00 am Jun 18 1:00 am
143.00 06/18/2018 02:59:12 Jun 17 10:59 pm Jun 17 7:59 pm
126.00 06/18/2018 01:59:28 Jun 17 09:59 pm Jun 17 6:59 pm
453.00 06/18/2018 00:59:44 Jun 17 08:59 pm Jun 17 5:59 pm
462.00 06/18/2018 00:00:00 Jun 17 08:00 pm Jun 17 5:00 pm
456.00 06/17/2018 22:58:08 Jun 17 06:58 pm Jun 17 3:58 pm
463.00 06/17/2018 21:58:24 Jun 17 05:58 pm Jun 17 2:58 pm
426.00 06/17/2018 20:58:40 Jun 17 04:58 pm Jun 17 1:58 pm
471.00 06/17/2018 19:58:56 Jun 17 03:58 pm Jun 17 12:58 pm
471.00 06/17/2018 18:59:12 Jun 17 02:59 pm Jun 17 11:59 am
466.00 06/17/2018 17:59:28 Jun 17 01:59 pm Jun 17 10:59 am
454.00 06/17/2018 16:59:44 Jun 17 12:59 pm Jun 17 9:59 am
446.00 06/17/2018 16:00:00 Jun 17 12:00 pm Jun 17 9:00 am
417.00 06/17/2018 14:58:08 Jun 17 10:58 am Jun 17 7:58 am
460.00 06/17/2018 13:58:24 Jun 17 09:58 am Jun 17 6:58 am
583.00 06/17/2018 12:58:40 Jun 17 08:58 am Jun 17 5:58 am
458.00 06/17/2018 11:58:56 Jun 17 07:58 am Jun 17 4:58 am
497.00 06/17/2018 10:59:12 Jun 17 06:59 am Jun 17 3:59 am
484.00 06/17/2018 09:59:28 Jun 17 05:59 am Jun 17 2:59 am
543.00 06/17/2018 08:59:44 Jun 17 04:59 am Jun 17 1:59 am
448.00 06/17/2018 08:00:00 Jun 17 04:00 am Jun 17 1:00 am
478.00 06/17/2018 03:58:56 Jun 16 11:58 pm Jun 16 8:58 pm
215.00 06/17/2018 02:59:12 Jun 16 10:59 pm Jun 16 7:59 pm
368.00 06/17/2018 01:59:28 Jun 16 09:59 pm Jun 16 6:59 pm
339.00 06/17/2018 00:59:44 Jun 16 08:59 pm Jun 16 5:59 pm
298.00 06/17/2018 00:00:00 Jun 16 08:00 pm Jun 16 5:00 pm
483.00 06/16/2018 22:58:08 Jun 16 06:58 pm Jun 16 3:58 pm
491.00 06/16/2018 21:58:24 Jun 16 05:58 pm Jun 16 2:58 pm
514.00 06/16/2018 20:58:40 Jun 16 04:58 pm Jun 16 1:58 pm
480.00 06/16/2018 19:58:56 Jun 16 03:58 pm Jun 16 12:58 pm
529.00 06/16/2018 18:59:12 Jun 16 02:59 pm Jun 16 11:59 am
542.00 06/16/2018 17:59:28 Jun 16 01:59 pm Jun 16 10:59 am
532.00 06/16/2018 16:59:44 Jun 16 12:59 pm Jun 16 9:59 am
753.00 06/16/2018 09:59:28 Jun 16 05:59 am Jun 16 2:59 am
805.00 06/16/2018 08:59:44 Jun 16 04:59 am Jun 16 1:59 am
840.00 06/16/2018 08:00:00 Jun 16 04:00 am Jun 16 1:00 am
606.00 06/16/2018 03:58:56 Jun 15 11:58 pm Jun 15 8:58 pm
533.00 06/16/2018 02:59:12 Jun 15 10:59 pm Jun 15 7:59 pm
493.00 06/16/2018 01:59:28 Jun 15 09:59 pm Jun 15 6:59 pm
111.00 06/16/2018 00:59:44 Jun 15 08:59 pm Jun 15 5:59 pm
524.00 06/16/2018 00:00:00 Jun 15 08:00 pm Jun 15 5:00 pm
273.00 06/15/2018 22:58:08 Jun 15 06:58 pm Jun 15 3:58 pm
530.00 06/15/2018 21:58:24 Jun 15 05:58 pm Jun 15 2:58 pm
532.00 06/15/2018 20:58:40 Jun 15 04:58 pm Jun 15 1:58 pm
549.00 06/15/2018 19:58:56 Jun 15 03:58 pm Jun 15 12:58 pm
562.00 06/15/2018 18:59:12 Jun 15 02:59 pm Jun 15 11:59 am
550.00 06/15/2018 17:59:28 Jun 15 01:59 pm Jun 15 10:59 am
599.00 06/15/2018 16:59:44 Jun 15 12:59 pm Jun 15 9:59 am
599.00 06/15/2018 16:00:00 Jun 15 12:00 pm Jun 15 9:00 am
607.00 06/15/2018 14:58:08 Jun 15 10:58 am Jun 15 7:58 am
609.00 06/15/2018 13:58:24 Jun 15 09:58 am Jun 15 6:58 am
681.00 06/15/2018 12:58:40 Jun 15 08:58 am Jun 15 5:58 am
716.00 06/15/2018 11:58:56 Jun 15 07:58 am Jun 15 4:58 am
710.00 06/15/2018 10:59:12 Jun 15 06:59 am Jun 15 3:59 am
766.00 06/15/2018 09:59:28 Jun 15 05:59 am Jun 15 2:59 am
802.00 06/15/2018 08:59:44 Jun 15 04:59 am Jun 15 1:59 am
848.00 06/15/2018 08:00:00 Jun 15 04:00 am Jun 15 1:00 am
656.00 06/15/2018 03:58:56 Jun 14 11:58 pm Jun 14 8:58 pm
577.00 06/15/2018 02:59:12 Jun 14 10:59 pm Jun 14 7:59 pm
558.00 06/15/2018 01:59:28 Jun 14 09:59 pm Jun 14 6:59 pm
103.00 06/15/2018 00:59:44 Jun 14 08:59 pm Jun 14 5:59 pm
141.00 06/15/2018 00:00:00 Jun 14 08:00 pm Jun 14 5:00 pm
171.00 06/14/2018 21:58:24 Jun 14 05:58 pm Jun 14 2:58 pm
574.00 06/14/2018 18:59:12 Jun 14 02:59 pm Jun 14 11:59 am
581.00 06/14/2018 16:00:00 Jun 14 12:00 pm Jun 14 9:00 am
657.00 06/14/2018 12:58:40 Jun 14 08:58 am Jun 14 5:58 am
682.00 06/14/2018 11:58:56 Jun 14 07:58 am Jun 14 4:58 am
776.00 06/14/2018 09:59:28 Jun 14 05:59 am Jun 14 2:59 am
925.00 06/14/2018 08:00:00 Jun 14 04:00 am Jun 14 1:00 am
539.00 06/14/2018 01:59:28 Jun 13 09:59 pm Jun 13 6:59 pm
528.00 06/13/2018 22:58:08 Jun 13 06:58 pm Jun 13 3:58 pm
513.00 06/13/2018 21:58:24 Jun 13 05:58 pm Jun 13 2:58 pm
530.00 06/13/2018 19:58:56 Jun 13 03:58 pm Jun 13 12:58 pm
550.00 06/13/2018 18:59:12 Jun 13 02:59 pm Jun 13 11:59 am
557.00 06/13/2018 17:59:28 Jun 13 01:59 pm Jun 13 10:59 am
622.00 06/13/2018 14:58:08 Jun 13 10:58 am Jun 13 7:58 am
668.00 06/13/2018 12:58:40 Jun 13 08:58 am Jun 13 5:58 am
725.00 06/13/2018 10:59:12 Jun 13 06:59 am Jun 13 3:59 am
797.00 06/13/2018 08:59:44 Jun 13 04:59 am Jun 13 1:59 am
910.00 06/13/2018 08:00:00 Jun 13 04:00 am Jun 13 1:00 am
319.00 06/13/2018 01:59:28 Jun 12 09:59 pm Jun 12 6:59 pm
419.00 06/13/2018 00:00:00 Jun 12 08:00 pm Jun 12 5:00 pm
519.00 06/12/2018 22:58:08 Jun 12 06:58 pm Jun 12 3:58 pm
388.00 06/12/2018 20:58:40 Jun 12 04:58 pm Jun 12 1:58 pm
547.00 06/12/2018 18:59:12 Jun 12 02:59 pm Jun 12 11:59 am
518.00 06/12/2018 16:59:44 Jun 12 12:59 pm Jun 12 9:59 am
619.00 06/12/2018 14:58:08 Jun 12 10:58 am Jun 12 7:58 am
677.00 06/12/2018 13:58:24 Jun 12 09:58 am Jun 12 6:58 am
674.00 06/12/2018 11:58:56 Jun 12 07:58 am Jun 12 4:58 am
783.00 06/12/2018 09:59:28 Jun 12 05:59 am Jun 12 2:59 am
837.00 06/12/2018 08:00:00 Jun 12 04:00 am Jun 12 1:00 am
867.00 06/12/2018 06:58:08 Jun 12 02:58 am Jun 11 11:58 pm
577.00 06/12/2018 02:59:12 Jun 11 10:59 pm Jun 11 7:59 pm
530.00 06/12/2018 01:59:28 Jun 11 09:59 pm Jun 11 6:59 pm
184.00 06/12/2018 00:00:00 Jun 11 08:00 pm Jun 11 5:00 pm
543.00 06/11/2018 21:58:24 Jun 11 05:58 pm Jun 11 2:58 pm
493.00 06/11/2018 20:58:40 Jun 11 04:58 pm Jun 11 1:58 pm
405.00 06/11/2018 18:59:12 Jun 11 02:59 pm Jun 11 11:59 am
503.00 06/11/2018 16:59:44 Jun 11 12:59 pm Jun 11 9:59 am
656.00 06/11/2018 14:58:08 Jun 11 10:58 am Jun 11 7:58 am
516.00 06/11/2018 13:58:24 Jun 11 09:58 am Jun 11 6:58 am
526.00 06/11/2018 12:58:40 Jun 11 08:58 am Jun 11 5:58 am
507.00 06/11/2018 10:59:12 Jun 11 06:59 am Jun 11 3:59 am
556.00 06/11/2018 09:59:28 Jun 11 05:59 am Jun 11 2:59 am
519.00 06/11/2018 08:00:00 Jun 11 04:00 am Jun 11 1:00 am
510.00 06/11/2018 06:58:08 Jun 11 02:58 am Jun 10 11:58 pm
498.00 06/11/2018 02:59:12 Jun 10 10:59 pm Jun 10 7:59 pm
367.00 06/11/2018 01:59:28 Jun 10 09:59 pm Jun 10 6:59 pm
491.00 06/11/2018 00:00:00 Jun 10 08:00 pm Jun 10 5:00 pm
514.00 06/10/2018 21:58:24 Jun 10 05:58 pm Jun 10 2:58 pm
482.00 06/10/2018 19:58:56 Jun 10 03:58 pm Jun 10 12:58 pm
491.00 06/10/2018 18:59:12 Jun 10 02:59 pm Jun 10 11:59 am
485.00 06/10/2018 17:59:28 Jun 10 01:59 pm Jun 10 10:59 am
482.00 06/10/2018 16:00:00 Jun 10 12:00 pm Jun 10 9:00 am
493.00 06/10/2018 14:58:08 Jun 10 10:58 am Jun 10 7:58 am
539.00 06/10/2018 12:58:40 Jun 10 08:58 am Jun 10 5:58 am
550.00 06/10/2018 10:59:12 Jun 10 06:59 am Jun 10 3:59 am
523.00 06/10/2018 09:59:28 Jun 10 05:59 am Jun 10 2:59 am
550.00 06/10/2018 08:59:44 Jun 10 04:59 am Jun 10 1:59 am
546.00 06/10/2018 06:58:08 Jun 10 02:58 am Jun 9 11:58 pm
505.00 06/10/2018 02:59:12 Jun 9 10:59 pm Jun 9 7:59 pm
492.00 06/10/2018 01:59:28 Jun 9 09:59 pm Jun 9 6:59 pm
499.00 06/10/2018 00:00:00 Jun 9 08:00 pm Jun 9 5:00 pm
547.00 06/09/2018 22:58:08 Jun 9 06:58 pm Jun 9 3:58 pm
545.00 06/09/2018 20:58:40 Jun 9 04:58 pm Jun 9 1:58 pm
547.00 06/09/2018 19:58:56 Jun 9 03:58 pm Jun 9 12:58 pm
550.00 06/09/2018 18:59:12 Jun 9 02:59 pm Jun 9 11:59 am
570.00 06/09/2018 17:59:28 Jun 9 01:59 pm Jun 9 10:59 am
586.00 06/09/2018 16:59:44 Jun 9 12:59 pm Jun 9 9:59 am
718.00 06/09/2018 14:58:08 Jun 9 10:58 am Jun 9 7:58 am
802.00 06/09/2018 12:58:40 Jun 9 08:58 am Jun 9 5:58 am
697.00 06/09/2018 11:58:56 Jun 9 07:58 am Jun 9 4:58 am
803.00 06/09/2018 09:59:28 Jun 9 05:59 am Jun 9 2:59 am
872.00 06/09/2018 08:59:44 Jun 9 04:59 am Jun 9 1:59 am
939.00 06/09/2018 06:58:08 Jun 9 02:58 am Jun 8 11:58 pm
564.00 06/09/2018 02:59:12 Jun 8 10:59 pm Jun 8 7:59 pm
516.00 06/09/2018 01:59:28 Jun 8 09:59 pm Jun 8 6:59 pm
337.00 06/09/2018 00:00:00 Jun 8 08:00 pm Jun 8 5:00 pm
500.00 06/08/2018 22:58:08 Jun 8 06:58 pm Jun 8 3:58 pm
490.00 06/08/2018 21:58:24 Jun 8 05:58 pm Jun 8 2:58 pm
540.00 06/08/2018 19:58:56 Jun 8 03:58 pm Jun 8 12:58 pm
527.00 06/08/2018 18:59:12 Jun 8 02:59 pm Jun 8 11:59 am
568.00 06/08/2018 17:59:28 Jun 8 01:59 pm Jun 8 10:59 am
743.00 06/08/2018 16:00:00 Jun 8 12:00 pm Jun 8 9:00 am
753.00 06/08/2018 14:58:08 Jun 8 10:58 am Jun 8 7:58 am
689.00 06/08/2018 12:58:40 Jun 8 08:58 am Jun 8 5:58 am
734.00 06/08/2018 11:58:56 Jun 8 07:58 am Jun 8 4:58 am
762.00 06/08/2018 10:59:12 Jun 8 06:59 am Jun 8 3:59 am
834.00 06/08/2018 08:59:44 Jun 8 04:59 am Jun 8 1:59 am
1025.00 06/08/2018 06:58:08 Jun 8 02:58 am Jun 7 11:58 pm
605.00 06/08/2018 02:59:12 Jun 7 10:59 pm Jun 7 7:59 pm
390.00 06/08/2018 01:59:28 Jun 7 09:59 pm Jun 7 6:59 pm
488.00 06/08/2018 00:00:00 Jun 7 08:00 pm Jun 7 5:00 pm
581.00 06/07/2018 22:58:08 Jun 7 06:58 pm Jun 7 3:58 pm
569.00 06/07/2018 21:58:24 Jun 7 05:58 pm Jun 7 2:58 pm
539.00 06/07/2018 20:58:40 Jun 7 04:58 pm Jun 7 1:58 pm
548.00 06/07/2018 18:59:12 Jun 7 02:59 pm Jun 7 11:59 am
565.00 06/07/2018 17:59:28 Jun 7 01:59 pm Jun 7 10:59 am
708.00 06/07/2018 16:59:44 Jun 7 12:59 pm Jun 7 9:59 am
610.00 06/07/2018 16:00:00 Jun 7 12:00 pm Jun 7 9:00 am
629.00 06/07/2018 14:58:08 Jun 7 10:58 am Jun 7 7:58 am
629.00 06/07/2018 13:58:24 Jun 7 09:58 am Jun 7 6:58 am
359.00 06/07/2018 11:58:56 Jun 7 07:58 am Jun 7 4:58 am
745.00 06/07/2018 10:59:12 Jun 7 06:59 am Jun 7 3:59 am
782.00 06/07/2018 09:59:28 Jun 7 05:59 am Jun 7 2:59 am
802.00 06/07/2018 08:59:44 Jun 7 04:59 am Jun 7 1:59 am
884.00 06/07/2018 08:00:00 Jun 7 04:00 am Jun 7 1:00 am
944.00 06/07/2018 06:58:08 Jun 7 02:58 am Jun 6 11:58 pm
586.00 06/07/2018 02:59:12 Jun 6 10:59 pm Jun 6 7:59 pm
530.00 06/07/2018 01:59:28 Jun 6 09:59 pm Jun 6 6:59 pm
532.00 06/07/2018 00:00:00 Jun 6 08:00 pm Jun 6 5:00 pm
533.00 06/06/2018 22:58:08 Jun 6 06:58 pm Jun 6 3:58 pm
544.00 06/06/2018 21:58:24 Jun 6 05:58 pm Jun 6 2:58 pm
527.00 06/06/2018 20:58:40 Jun 6 04:58 pm Jun 6 1:58 pm
537.00 06/06/2018 19:58:56 Jun 6 03:58 pm Jun 6 12:58 pm
566.00 06/06/2018 18:59:12 Jun 6 02:59 pm Jun 6 11:59 am
579.00 06/06/2018 17:59:28 Jun 6 01:59 pm Jun 6 10:59 am
568.00 06/06/2018 16:59:44 Jun 6 12:59 pm Jun 6 9:59 am
730.00 06/06/2018 16:00:00 Jun 6 12:00 pm Jun 6 9:00 am
738.00 06/06/2018 14:58:08 Jun 6 10:58 am Jun 6 7:58 am
657.00 06/06/2018 13:58:24 Jun 6 09:58 am Jun 6 6:58 am
727.00 06/06/2018 11:58:56 Jun 6 07:58 am Jun 6 4:58 am
727.00 06/06/2018 10:59:12 Jun 6 06:59 am Jun 6 3:59 am
769.00 06/06/2018 09:59:28 Jun 6 05:59 am Jun 6 2:59 am
831.00 06/06/2018 08:59:44 Jun 6 04:59 am Jun 6 1:59 am
896.00 06/06/2018 08:00:00 Jun 6 04:00 am Jun 6 1:00 am
1030.00 06/06/2018 02:59:12 Jun 5 10:59 pm Jun 5 7:59 pm
904.00 06/06/2018 01:59:28 Jun 5 09:59 pm Jun 5 6:59 pm
519.00 06/06/2018 00:59:44 Jun 5 08:59 pm Jun 5 5:59 pm
416.00 06/06/2018 00:00:00 Jun 5 08:00 pm Jun 5 5:00 pm
829.00 06/05/2018 22:58:08 Jun 5 06:58 pm Jun 5 3:58 pm
796.00 06/05/2018 21:58:24 Jun 5 05:58 pm Jun 5 2:58 pm
820.00 06/05/2018 20:58:40 Jun 5 04:58 pm Jun 5 1:58 pm
760.00 06/05/2018 19:58:56 Jun 5 03:58 pm Jun 5 12:58 pm
761.00 06/05/2018 18:59:12 Jun 5 02:59 pm Jun 5 11:59 am
856.00 06/05/2018 16:59:44 Jun 5 12:59 pm Jun 5 9:59 am
1030.00 06/05/2018 14:58:08 Jun 5 10:58 am Jun 5 7:58 am
1013.00 06/05/2018 13:58:24 Jun 5 09:58 am Jun 5 6:58 am
1029.00 06/05/2018 12:58:40 Jun 5 08:58 am Jun 5 5:58 am
1032.00 06/05/2018 11:58:56 Jun 5 07:58 am Jun 5 4:58 am
1105.00 06/05/2018 10:59:12 Jun 5 06:59 am Jun 5 3:59 am
1113.00 06/05/2018 09:59:28 Jun 5 05:59 am Jun 5 2:59 am
1126.00 06/05/2018 08:59:44 Jun 5 04:59 am Jun 5 1:59 am
1156.00 06/05/2018 08:00:00 Jun 5 04:00 am Jun 5 1:00 am
1432.00 06/05/2018 02:59:12 Jun 4 10:59 pm Jun 4 7:59 pm
1320.00 06/05/2018 01:59:28 Jun 4 09:59 pm Jun 4 6:59 pm
1219.00 06/05/2018 00:59:44 Jun 4 08:59 pm Jun 4 5:59 pm
1365.00 06/04/2018 22:58:08 Jun 4 06:58 pm Jun 4 3:58 pm
1373.00 06/04/2018 20:58:40 Jun 4 04:58 pm Jun 4 1:58 pm
1193.00 06/04/2018 19:58:56 Jun 4 03:58 pm Jun 4 12:58 pm
1407.00 06/04/2018 18:59:12 Jun 4 02:59 pm Jun 4 11:59 am
1413.00 06/04/2018 17:59:28 Jun 4 01:59 pm Jun 4 10:59 am
1410.00 06/04/2018 16:59:44 Jun 4 12:59 pm Jun 4 9:59 am
1437.00 06/04/2018 16:00:00 Jun 4 12:00 pm Jun 4 9:00 am
1429.00 06/04/2018 14:58:08 Jun 4 10:58 am Jun 4 7:58 am
1427.00 06/04/2018 13:58:24 Jun 4 09:58 am Jun 4 6:58 am
1429.00 06/04/2018 12:58:40 Jun 4 08:58 am Jun 4 5:58 am
1419.00 06/04/2018 11:58:56 Jun 4 07:58 am Jun 4 4:58 am
1431.00 06/04/2018 10:59:12 Jun 4 06:59 am Jun 4 3:59 am
1470.00 06/04/2018 09:59:28 Jun 4 05:59 am Jun 4 2:59 am
1485.00 06/04/2018 08:59:44 Jun 4 04:59 am Jun 4 1:59 am
1496.00 06/04/2018 06:58:08 Jun 4 02:58 am Jun 3 11:58 pm
1403.00 06/04/2018 00:59:44 Jun 3 08:59 pm Jun 3 5:59 pm
1633.00 06/03/2018 18:59:12 Jun 3 02:59 pm Jun 3 11:59 am
1646.00 06/03/2018 16:59:44 Jun 3 12:59 pm Jun 3 9:59 am
1743.00 06/03/2018 08:00:00 Jun 3 04:00 am Jun 3 1:00 am
1369.00 05/30/2018 00:59:44 May 29 08:59 pm May 29 5:59 pm
1299.00 05/30/2018 00:00:00 May 29 08:00 pm May 29 5:00 pm
1461.00 05/29/2018 13:58:24 May 29 09:58 am May 29 6:58 am
1383.00 05/29/2018 12:58:40 May 29 08:58 am May 29 5:58 am
1202.00 05/29/2018 11:58:56 May 29 07:58 am May 29 4:58 am
1081.00 05/29/2018 10:59:12 May 29 06:59 am May 29 3:59 am
1046.00 05/29/2018 09:59:28 May 29 05:59 am May 29 2:59 am
994.00 05/29/2018 08:59:44 May 29 04:59 am May 29 1:59 am
1246.00 05/29/2018 08:00:00 May 29 04:00 am May 29 1:00 am
1200.00 05/29/2018 06:58:08 May 29 02:58 am May 28 11:58 pm
1162.00 05/29/2018 03:58:56 May 28 11:58 pm May 28 8:58 pm
998.00 05/29/2018 00:00:00 May 28 08:00 pm May 28 5:00 pm
1033.00 05/28/2018 22:58:08 May 28 06:58 pm May 28 3:58 pm
826.00 05/28/2018 21:58:24 May 28 05:58 pm May 28 2:58 pm
1070.00 05/28/2018 20:58:40 May 28 04:58 pm May 28 1:58 pm
1068.00 05/28/2018 19:58:56 May 28 03:58 pm May 28 12:58 pm
1067.00 05/28/2018 18:59:12 May 28 02:59 pm May 28 11:59 am
1065.00 05/28/2018 17:59:28 May 28 01:59 pm May 28 10:59 am
1106.00 05/28/2018 16:59:44 May 28 12:59 pm May 28 9:59 am
1230.00 05/28/2018 16:00:00 May 28 12:00 pm May 28 9:00 am
1200.00 05/28/2018 14:58:08 May 28 10:58 am May 28 7:58 am
1387.00 05/28/2018 13:58:24 May 28 09:58 am May 28 6:58 am
1354.00 05/28/2018 12:58:40 May 28 08:58 am May 28 5:58 am
1494.00 05/28/2018 11:58:56 May 28 07:58 am May 28 4:58 am
1249.00 05/28/2018 06:58:08 May 28 02:58 am May 27 11:58 pm
1480.00 05/28/2018 02:59:12 May 27 10:59 pm May 27 7:59 pm
1386.00 05/28/2018 00:59:44 May 27 08:59 pm May 27 5:59 pm
1279.00 05/28/2018 00:00:00 May 27 08:00 pm May 27 5:00 pm
1425.00 05/27/2018 22:58:08 May 27 06:58 pm May 27 3:58 pm
1417.00 05/27/2018 21:58:24 May 27 05:58 pm May 27 2:58 pm
1359.00 05/27/2018 20:58:40 May 27 04:58 pm May 27 1:58 pm
1300.00 05/27/2018 19:58:56 May 27 03:58 pm May 27 12:58 pm
1286.00 05/27/2018 18:59:12 May 27 02:59 pm May 27 11:59 am
1190.00 05/27/2018 16:59:44 May 27 12:59 pm May 27 9:59 am
1327.00 05/27/2018 16:00:00 May 27 12:00 pm May 27 9:00 am
1242.00 05/27/2018 13:58:24 May 27 09:58 am May 27 6:58 am
1213.00 05/27/2018 12:58:40 May 27 08:58 am May 27 5:58 am
1080.00 05/27/2018 10:59:12 May 27 06:59 am May 27 3:59 am
974.00 05/27/2018 09:59:28 May 27 05:59 am May 27 2:59 am
993.00 05/27/2018 08:00:00 May 27 04:00 am May 27 1:00 am
342.00 05/27/2018 01:59:28 May 26 09:59 pm May 26 6:59 pm
353.00 05/27/2018 00:00:00 May 26 08:00 pm May 26 5:00 pm
706.00 05/26/2018 22:58:08 May 26 06:58 pm May 26 3:58 pm
691.00 05/26/2018 20:58:40 May 26 04:58 pm May 26 1:58 pm

Status

Gauge History

Times listed in GMT 24h, ET and PT hours provided for convenience Graphs in GMT. Readings of "n/a" constitute a frozen gauge or gauge error.
Reading Updated (GMT) Eastern Pacific Comment
running 06/20/2018 13:58:24 Jun 20 09:58 am Jun 20 6:58 am
running 06/20/2018 12:58:40 Jun 20 08:58 am Jun 20 5:58 am
running 06/20/2018 11:58:56 Jun 20 07:58 am Jun 20 4:58 am
running 06/20/2018 10:59:12 Jun 20 06:59 am Jun 20 3:59 am
running 06/20/2018 09:59:28 Jun 20 05:59 am Jun 20 2:59 am
running 06/20/2018 08:59:44 Jun 20 04:59 am Jun 20 1:59 am
running 06/20/2018 08:00:00 Jun 20 04:00 am Jun 20 1:00 am
too low 06/20/2018 02:59:12 Jun 19 10:59 pm Jun 19 7:59 pm
too low 06/20/2018 01:59:28 Jun 19 09:59 pm Jun 19 6:59 pm
too low 06/20/2018 00:59:44 Jun 19 08:59 pm Jun 19 5:59 pm
too low 06/20/2018 00:00:00 Jun 19 08:00 pm Jun 19 5:00 pm
too low 06/19/2018 21:58:24 Jun 19 05:58 pm Jun 19 2:58 pm
too low 06/19/2018 20:58:40 Jun 19 04:58 pm Jun 19 1:58 pm
too low 06/19/2018 19:58:56 Jun 19 03:58 pm Jun 19 12:58 pm
too low 06/19/2018 18:59:12 Jun 19 02:59 pm Jun 19 11:59 am
too low 06/19/2018 17:59:28 Jun 19 01:59 pm Jun 19 10:59 am
too low 06/19/2018 16:59:44 Jun 19 12:59 pm Jun 19 9:59 am
too low 06/19/2018 16:00:00 Jun 19 12:00 pm Jun 19 9:00 am
running 06/19/2018 12:58:40 Jun 19 08:58 am Jun 19 5:58 am
too low 06/19/2018 00:00:00 Jun 18 08:00 pm Jun 18 5:00 pm
too low 06/18/2018 21:58:24 Jun 18 05:58 pm Jun 18 2:58 pm
too low 06/18/2018 20:58:40 Jun 18 04:58 pm Jun 18 1:58 pm
too low 06/18/2018 18:59:12 Jun 18 02:59 pm Jun 18 11:59 am
too low 06/18/2018 17:59:28 Jun 18 01:59 pm Jun 18 10:59 am
too low 06/18/2018 16:59:44 Jun 18 12:59 pm Jun 18 9:59 am
too low 06/18/2018 14:58:08 Jun 18 10:58 am Jun 18 7:58 am
too low 06/18/2018 13:58:24 Jun 18 09:58 am Jun 18 6:58 am
too low 06/18/2018 12:58:40 Jun 18 08:58 am Jun 18 5:58 am
too low 06/18/2018 10:59:12 Jun 18 06:59 am Jun 18 3:59 am
too low 06/18/2018 09:59:28 Jun 18 05:59 am Jun 18 2:59 am
too low 06/18/2018 08:00:00 Jun 18 04:00 am Jun 18 1:00 am
too low 06/18/2018 02:59:12 Jun 17 10:59 pm Jun 17 7:59 pm
too low 06/18/2018 01:59:28 Jun 17 09:59 pm Jun 17 6:59 pm
too low 06/18/2018 00:59:44 Jun 17 08:59 pm Jun 17 5:59 pm
too low 06/18/2018 00:00:00 Jun 17 08:00 pm Jun 17 5:00 pm
too low 06/17/2018 22:58:08 Jun 17 06:58 pm Jun 17 3:58 pm
too low 06/17/2018 21:58:24 Jun 17 05:58 pm Jun 17 2:58 pm
too low 06/17/2018 20:58:40 Jun 17 04:58 pm Jun 17 1:58 pm
too low 06/17/2018 19:58:56 Jun 17 03:58 pm Jun 17 12:58 pm
too low 06/17/2018 18:59:12 Jun 17 02:59 pm Jun 17 11:59 am
too low 06/17/2018 17:59:28 Jun 17 01:59 pm Jun 17 10:59 am
too low 06/17/2018 16:59:44 Jun 17 12:59 pm Jun 17 9:59 am
too low 06/17/2018 16:00:00 Jun 17 12:00 pm Jun 17 9:00 am
too low 06/17/2018 14:58:08 Jun 17 10:58 am Jun 17 7:58 am
too low 06/17/2018 13:58:24 Jun 17 09:58 am Jun 17 6:58 am
too low 06/17/2018 12:58:40 Jun 17 08:58 am Jun 17 5:58 am
too low 06/17/2018 11:58:56 Jun 17 07:58 am Jun 17 4:58 am
too low 06/17/2018 10:59:12 Jun 17 06:59 am Jun 17 3:59 am
too low 06/17/2018 09:59:28 Jun 17 05:59 am Jun 17 2:59 am
too low 06/17/2018 08:59:44 Jun 17 04:59 am Jun 17 1:59 am
too low 06/17/2018 08:00:00 Jun 17 04:00 am Jun 17 1:00 am
too low 06/17/2018 03:58:56 Jun 16 11:58 pm Jun 16 8:58 pm
too low 06/17/2018 02:59:12 Jun 16 10:59 pm Jun 16 7:59 pm
too low 06/17/2018 01:59:28 Jun 16 09:59 pm Jun 16 6:59 pm
too low 06/17/2018 00:59:44 Jun 16 08:59 pm Jun 16 5:59 pm
too low 06/17/2018 00:00:00 Jun 16 08:00 pm Jun 16 5:00 pm
too low 06/16/2018 22:58:08 Jun 16 06:58 pm Jun 16 3:58 pm
too low 06/16/2018 20:58:40 Jun 16 04:58 pm Jun 16 1:58 pm
too low 06/16/2018 19:58:56 Jun 16 03:58 pm Jun 16 12:58 pm
too low 06/16/2018 18:59:12 Jun 16 02:59 pm Jun 16 11:59 am
too low 06/16/2018 17:59:28 Jun 16 01:59 pm Jun 16 10:59 am
too low 06/16/2018 16:59:44 Jun 16 12:59 pm Jun 16 9:59 am
running 06/16/2018 09:59:28 Jun 16 05:59 am Jun 16 2:59 am
running 06/16/2018 08:59:44 Jun 16 04:59 am Jun 16 1:59 am
running 06/16/2018 08:00:00 Jun 16 04:00 am Jun 16 1:00 am
running 06/16/2018 03:58:56 Jun 15 11:58 pm Jun 15 8:58 pm
too low 06/16/2018 02:59:12 Jun 15 10:59 pm Jun 15 7:59 pm
too low 06/16/2018 01:59:28 Jun 15 09:59 pm Jun 15 6:59 pm
too low 06/16/2018 00:59:44 Jun 15 08:59 pm Jun 15 5:59 pm
too low 06/16/2018 00:00:00 Jun 15 08:00 pm Jun 15 5:00 pm
too low 06/15/2018 22:58:08 Jun 15 06:58 pm Jun 15 3:58 pm
too low 06/15/2018 21:58:24 Jun 15 05:58 pm Jun 15 2:58 pm
too low 06/15/2018 20:58:40 Jun 15 04:58 pm Jun 15 1:58 pm
too low 06/15/2018 19:58:56 Jun 15 03:58 pm Jun 15 12:58 pm
too low 06/15/2018 18:59:12 Jun 15 02:59 pm Jun 15 11:59 am
too low 06/15/2018 17:59:28 Jun 15 01:59 pm Jun 15 10:59 am
too low 06/15/2018 16:59:44 Jun 15 12:59 pm Jun 15 9:59 am
too low 06/15/2018 16:00:00 Jun 15 12:00 pm Jun 15 9:00 am
running 06/15/2018 14:58:08 Jun 15 10:58 am Jun 15 7:58 am
running 06/15/2018 13:58:24 Jun 15 09:58 am Jun 15 6:58 am
running 06/15/2018 12:58:40 Jun 15 08:58 am Jun 15 5:58 am
running 06/15/2018 11:58:56 Jun 15 07:58 am Jun 15 4:58 am
running 06/15/2018 10:59:12 Jun 15 06:59 am Jun 15 3:59 am
running 06/15/2018 09:59:28 Jun 15 05:59 am Jun 15 2:59 am
running 06/15/2018 08:59:44 Jun 15 04:59 am Jun 15 1:59 am
running 06/15/2018 08:00:00 Jun 15 04:00 am Jun 15 1:00 am
running 06/15/2018 03:58:56 Jun 14 11:58 pm Jun 14 8:58 pm
too low 06/15/2018 02:59:12 Jun 14 10:59 pm Jun 14 7:59 pm
too low 06/15/2018 01:59:28 Jun 14 09:59 pm Jun 14 6:59 pm
too low 06/15/2018 00:59:44 Jun 14 08:59 pm Jun 14 5:59 pm
too low 06/15/2018 00:00:00 Jun 14 08:00 pm Jun 14 5:00 pm
too low 06/14/2018 21:58:24 Jun 14 05:58 pm Jun 14 2:58 pm
too low 06/14/2018 18:59:12 Jun 14 02:59 pm Jun 14 11:59 am
too low 06/14/2018 16:00:00 Jun 14 12:00 pm Jun 14 9:00 am
running 06/14/2018 12:58:40 Jun 14 08:58 am Jun 14 5:58 am
running 06/14/2018 11:58:56 Jun 14 07:58 am Jun 14 4:58 am
running 06/14/2018 09:59:28 Jun 14 05:59 am Jun 14 2:59 am
running 06/14/2018 08:00:00 Jun 14 04:00 am Jun 14 1:00 am
too low 06/13/2018 22:58:08 Jun 13 06:58 pm Jun 13 3:58 pm
too low 06/13/2018 21:58:24 Jun 13 05:58 pm Jun 13 2:58 pm
too low 06/13/2018 19:58:56 Jun 13 03:58 pm Jun 13 12:58 pm
too low 06/13/2018 17:59:28 Jun 13 01:59 pm Jun 13 10:59 am
running 06/13/2018 14:58:08 Jun 13 10:58 am Jun 13 7:58 am
running 06/13/2018 12:58:40 Jun 13 08:58 am Jun 13 5:58 am
running 06/13/2018 10:59:12 Jun 13 06:59 am Jun 13 3:59 am
running 06/13/2018 08:59:44 Jun 13 04:59 am Jun 13 1:59 am
running 06/13/2018 08:00:00 Jun 13 04:00 am Jun 13 1:00 am
too low 06/13/2018 01:59:28 Jun 12 09:59 pm Jun 12 6:59 pm
too low 06/13/2018 00:00:00 Jun 12 08:00 pm Jun 12 5:00 pm
too low 06/12/2018 22:58:08 Jun 12 06:58 pm Jun 12 3:58 pm
too low 06/12/2018 20:58:40 Jun 12 04:58 pm Jun 12 1:58 pm
too low 06/12/2018 18:59:12 Jun 12 02:59 pm Jun 12 11:59 am
too low 06/12/2018 16:59:44 Jun 12 12:59 pm Jun 12 9:59 am
running 06/12/2018 14:58:08 Jun 12 10:58 am Jun 12 7:58 am
running 06/12/2018 13:58:24 Jun 12 09:58 am Jun 12 6:58 am
running 06/12/2018 11:58:56 Jun 12 07:58 am Jun 12 4:58 am
running 06/12/2018 09:59:28 Jun 12 05:59 am Jun 12 2:59 am
running 06/12/2018 08:00:00 Jun 12 04:00 am Jun 12 1:00 am
running 06/12/2018 06:58:08 Jun 12 02:58 am Jun 11 11:58 pm
too low 06/12/2018 02:59:12 Jun 11 10:59 pm Jun 11 7:59 pm
too low 06/12/2018 01:59:28 Jun 11 09:59 pm Jun 11 6:59 pm
too low 06/12/2018 00:00:00 Jun 11 08:00 pm Jun 11 5:00 pm
too low 06/11/2018 21:58:24 Jun 11 05:58 pm Jun 11 2:58 pm
too low 06/11/2018 20:58:40 Jun 11 04:58 pm Jun 11 1:58 pm
too low 06/11/2018 18:59:12 Jun 11 02:59 pm Jun 11 11:59 am
too low 06/11/2018 16:59:44 Jun 11 12:59 pm Jun 11 9:59 am
running 06/11/2018 14:58:08 Jun 11 10:58 am Jun 11 7:58 am
too low 06/11/2018 13:58:24 Jun 11 09:58 am Jun 11 6:58 am
too low 06/11/2018 12:58:40 Jun 11 08:58 am Jun 11 5:58 am
too low 06/11/2018 10:59:12 Jun 11 06:59 am Jun 11 3:59 am
too low 06/11/2018 09:59:28 Jun 11 05:59 am Jun 11 2:59 am
too low 06/11/2018 08:00:00 Jun 11 04:00 am Jun 11 1:00 am
too low 06/11/2018 06:58:08 Jun 11 02:58 am Jun 10 11:58 pm
too low 06/11/2018 02:59:12 Jun 10 10:59 pm Jun 10 7:59 pm
too low 06/11/2018 01:59:28 Jun 10 09:59 pm Jun 10 6:59 pm
too low 06/11/2018 00:00:00 Jun 10 08:00 pm Jun 10 5:00 pm
too low 06/10/2018 21:58:24 Jun 10 05:58 pm Jun 10 2:58 pm
too low 06/10/2018 19:58:56 Jun 10 03:58 pm Jun 10 12:58 pm
too low 06/10/2018 18:59:12 Jun 10 02:59 pm Jun 10 11:59 am
too low 06/10/2018 17:59:28 Jun 10 01:59 pm Jun 10 10:59 am
too low 06/10/2018 16:00:00 Jun 10 12:00 pm Jun 10 9:00 am
too low 06/10/2018 14:58:08 Jun 10 10:58 am Jun 10 7:58 am
too low 06/10/2018 12:58:40 Jun 10 08:58 am Jun 10 5:58 am
too low 06/10/2018 10:59:12 Jun 10 06:59 am Jun 10 3:59 am
too low 06/10/2018 09:59:28 Jun 10 05:59 am Jun 10 2:59 am
too low 06/10/2018 08:59:44 Jun 10 04:59 am Jun 10 1:59 am
too low 06/10/2018 06:58:08 Jun 10 02:58 am Jun 9 11:58 pm
too low 06/10/2018 02:59:12 Jun 9 10:59 pm Jun 9 7:59 pm
too low 06/10/2018 01:59:28 Jun 9 09:59 pm Jun 9 6:59 pm
too low 06/10/2018 00:00:00 Jun 9 08:00 pm Jun 9 5:00 pm
too low 06/09/2018 22:58:08 Jun 9 06:58 pm Jun 9 3:58 pm
too low 06/09/2018 20:58:40 Jun 9 04:58 pm Jun 9 1:58 pm
too low 06/09/2018 19:58:56 Jun 9 03:58 pm Jun 9 12:58 pm
too low 06/09/2018 17:59:28 Jun 9 01:59 pm Jun 9 10:59 am
too low 06/09/2018 16:59:44 Jun 9 12:59 pm Jun 9 9:59 am
running 06/09/2018 14:58:08 Jun 9 10:58 am Jun 9 7:58 am
running 06/09/2018 12:58:40 Jun 9 08:58 am Jun 9 5:58 am
running 06/09/2018 11:58:56 Jun 9 07:58 am Jun 9 4:58 am
running 06/09/2018 09:59:28 Jun 9 05:59 am Jun 9 2:59 am
running 06/09/2018 08:59:44 Jun 9 04:59 am Jun 9 1:59 am
running 06/09/2018 06:58:08 Jun 9 02:58 am Jun 8 11:58 pm
too low 06/09/2018 02:59:12 Jun 8 10:59 pm Jun 8 7:59 pm
too low 06/09/2018 01:59:28 Jun 8 09:59 pm Jun 8 6:59 pm
too low 06/09/2018 00:00:00 Jun 8 08:00 pm Jun 8 5:00 pm
too low 06/08/2018 22:58:08 Jun 8 06:58 pm Jun 8 3:58 pm
too low 06/08/2018 21:58:24 Jun 8 05:58 pm Jun 8 2:58 pm
too low 06/08/2018 19:58:56 Jun 8 03:58 pm Jun 8 12:58 pm
too low 06/08/2018 18:59:12 Jun 8 02:59 pm Jun 8 11:59 am
too low 06/08/2018 17:59:28 Jun 8 01:59 pm Jun 8 10:59 am
running 06/08/2018 16:00:00 Jun 8 12:00 pm Jun 8 9:00 am
running 06/08/2018 14:58:08 Jun 8 10:58 am Jun 8 7:58 am
running 06/08/2018 12:58:40 Jun 8 08:58 am Jun 8 5:58 am
running 06/08/2018 11:58:56 Jun 8 07:58 am Jun 8 4:58 am
running 06/08/2018 10:59:12 Jun 8 06:59 am Jun 8 3:59 am
running 06/08/2018 08:59:44 Jun 8 04:59 am Jun 8 1:59 am
running 06/08/2018 06:58:08 Jun 8 02:58 am Jun 7 11:58 pm
running 06/08/2018 02:59:12 Jun 7 10:59 pm Jun 7 7:59 pm
too low 06/08/2018 01:59:28 Jun 7 09:59 pm Jun 7 6:59 pm
too low 06/08/2018 00:00:00 Jun 7 08:00 pm Jun 7 5:00 pm
too low 06/07/2018 22:58:08 Jun 7 06:58 pm Jun 7 3:58 pm
too low 06/07/2018 21:58:24 Jun 7 05:58 pm Jun 7 2:58 pm
too low 06/07/2018 20:58:40 Jun 7 04:58 pm Jun 7 1:58 pm
too low 06/07/2018 18:59:12 Jun 7 02:59 pm Jun 7 11:59 am
too low 06/07/2018 17:59:28 Jun 7 01:59 pm Jun 7 10:59 am
running 06/07/2018 16:59:44 Jun 7 12:59 pm Jun 7 9:59 am
running 06/07/2018 16:00:00 Jun 7 12:00 pm Jun 7 9:00 am
running 06/07/2018 14:58:08 Jun 7 10:58 am Jun 7 7:58 am
running 06/07/2018 13:58:24 Jun 7 09:58 am Jun 7 6:58 am
too low 06/07/2018 11:58:56 Jun 7 07:58 am Jun 7 4:58 am
running 06/07/2018 10:59:12 Jun 7 06:59 am Jun 7 3:59 am
running 06/07/2018 09:59:28 Jun 7 05:59 am Jun 7 2:59 am
running 06/07/2018 08:59:44 Jun 7 04:59 am Jun 7 1:59 am
running 06/07/2018 08:00:00 Jun 7 04:00 am Jun 7 1:00 am
running 06/07/2018 06:58:08 Jun 7 02:58 am Jun 6 11:58 pm
too low 06/07/2018 02:59:12 Jun 6 10:59 pm Jun 6 7:59 pm
too low 06/07/2018 01:59:28 Jun 6 09:59 pm Jun 6 6:59 pm
too low 06/07/2018 00:00:00 Jun 6 08:00 pm Jun 6 5:00 pm
too low 06/06/2018 22:58:08 Jun 6 06:58 pm Jun 6 3:58 pm
too low 06/06/2018 21:58:24 Jun 6 05:58 pm Jun 6 2:58 pm
too low 06/06/2018 20:58:40 Jun 6 04:58 pm Jun 6 1:58 pm
too low 06/06/2018 19:58:56 Jun 6 03:58 pm Jun 6 12:58 pm
too low 06/06/2018 18:59:12 Jun 6 02:59 pm Jun 6 11:59 am
too low 06/06/2018 17:59:28 Jun 6 01:59 pm Jun 6 10:59 am
too low 06/06/2018 16:59:44 Jun 6 12:59 pm Jun 6 9:59 am
running 06/06/2018 16:00:00 Jun 6 12:00 pm Jun 6 9:00 am
running 06/06/2018 14:58:08 Jun 6 10:58 am Jun 6 7:58 am
running 06/06/2018 13:58:24 Jun 6 09:58 am Jun 6 6:58 am
running 06/06/2018 11:58:56 Jun 6 07:58 am Jun 6 4:58 am
running 06/06/2018 10:59:12 Jun 6 06:59 am Jun 6 3:59 am
running 06/06/2018 09:59:28 Jun 6 05:59 am Jun 6 2:59 am
running 06/06/2018 08:59:44 Jun 6 04:59 am Jun 6 1:59 am
running 06/06/2018 08:00:00 Jun 6 04:00 am Jun 6 1:00 am
running 06/06/2018 02:59:12 Jun 5 10:59 pm Jun 5 7:59 pm
running 06/06/2018 01:59:28 Jun 5 09:59 pm Jun 5 6:59 pm
too low 06/06/2018 00:59:44 Jun 5 08:59 pm Jun 5 5:59 pm
too low 06/06/2018 00:00:00 Jun 5 08:00 pm Jun 5 5:00 pm
running 06/05/2018 22:58:08 Jun 5 06:58 pm Jun 5 3:58 pm
running 06/05/2018 21:58:24 Jun 5 05:58 pm Jun 5 2:58 pm
running 06/05/2018 20:58:40 Jun 5 04:58 pm Jun 5 1:58 pm
running 06/05/2018 19:58:56 Jun 5 03:58 pm Jun 5 12:58 pm
running 06/05/2018 18:59:12 Jun 5 02:59 pm Jun 5 11:59 am
running 06/05/2018 16:59:44 Jun 5 12:59 pm Jun 5 9:59 am
running 06/05/2018 14:58:08 Jun 5 10:58 am Jun 5 7:58 am
running 06/05/2018 13:58:24 Jun 5 09:58 am Jun 5 6:58 am
running 06/05/2018 12:58:40 Jun 5 08:58 am Jun 5 5:58 am
running 06/05/2018 11:58:56 Jun 5 07:58 am Jun 5 4:58 am
running 06/05/2018 10:59:12 Jun 5 06:59 am Jun 5 3:59 am
running 06/05/2018 09:59:28 Jun 5 05:59 am Jun 5 2:59 am
running 06/05/2018 08:59:44 Jun 5 04:59 am Jun 5 1:59 am
running 06/05/2018 08:00:00 Jun 5 04:00 am Jun 5 1:00 am
running 06/05/2018 02:59:12 Jun 4 10:59 pm Jun 4 7:59 pm
running 06/05/2018 01:59:28 Jun 4 09:59 pm Jun 4 6:59 pm
running 06/05/2018 00:59:44 Jun 4 08:59 pm Jun 4 5:59 pm
running 06/04/2018 22:58:08 Jun 4 06:58 pm Jun 4 3:58 pm
running 06/04/2018 20:58:40 Jun 4 04:58 pm Jun 4 1:58 pm
running 06/04/2018 19:58:56 Jun 4 03:58 pm Jun 4 12:58 pm
running 06/04/2018 18:59:12 Jun 4 02:59 pm Jun 4 11:59 am
running 06/04/2018 17:59:28 Jun 4 01:59 pm Jun 4 10:59 am
running 06/04/2018 16:59:44 Jun 4 12:59 pm Jun 4 9:59 am
running 06/04/2018 16:00:00 Jun 4 12:00 pm Jun 4 9:00 am
running 06/04/2018 14:58:08 Jun 4 10:58 am Jun 4 7:58 am
running 06/04/2018 13:58:24 Jun 4 09:58 am Jun 4 6:58 am
running 06/04/2018 12:58:40 Jun 4 08:58 am Jun 4 5:58 am
running 06/04/2018 11:58:56 Jun 4 07:58 am Jun 4 4:58 am
running 06/04/2018 10:59:12 Jun 4 06:59 am Jun 4 3:59 am
running 06/04/2018 09:59:28 Jun 4 05:59 am Jun 4 2:59 am
running 06/04/2018 08:59:44 Jun 4 04:59 am Jun 4 1:59 am
running 06/04/2018 06:58:08 Jun 4 02:58 am Jun 3 11:58 pm
running 06/04/2018 00:59:44 Jun 3 08:59 pm Jun 3 5:59 pm
running 06/03/2018 18:59:12 Jun 3 02:59 pm Jun 3 11:59 am
running 06/03/2018 16:59:44 Jun 3 12:59 pm Jun 3 9:59 am
running 06/03/2018 08:00:00 Jun 3 04:00 am Jun 3 1:00 am
running 05/30/2018 00:59:44 May 29 08:59 pm May 29 5:59 pm
running 05/30/2018 00:00:00 May 29 08:00 pm May 29 5:00 pm
running 05/29/2018 13:58:24 May 29 09:58 am May 29 6:58 am
running 05/29/2018 12:58:40 May 29 08:58 am May 29 5:58 am
running 05/29/2018 11:58:56 May 29 07:58 am May 29 4:58 am
running 05/29/2018 10:59:12 May 29 06:59 am May 29 3:59 am
running 05/29/2018 09:59:28 May 29 05:59 am May 29 2:59 am
running 05/29/2018 08:59:44 May 29 04:59 am May 29 1:59 am
running 05/29/2018 08:00:00 May 29 04:00 am May 29 1:00 am
running 05/29/2018 03:58:56 May 28 11:58 pm May 28 8:58 pm
running 05/29/2018 00:00:00 May 28 08:00 pm May 28 5:00 pm
running 05/28/2018 22:58:08 May 28 06:58 pm May 28 3:58 pm
running 05/28/2018 21:58:24 May 28 05:58 pm May 28 2:58 pm
running 05/28/2018 20:58:40 May 28 04:58 pm May 28 1:58 pm
running 05/28/2018 19:58:56 May 28 03:58 pm May 28 12:58 pm
running 05/28/2018 18:59:12 May 28 02:59 pm May 28 11:59 am
running 05/28/2018 17:59:28 May 28 01:59 pm May 28 10:59 am
running 05/28/2018 16:59:44 May 28 12:59 pm May 28 9:59 am
running 05/28/2018 16:00:00 May 28 12:00 pm May 28 9:00 am
running 05/28/2018 14:58:08 May 28 10:58 am May 28 7:58 am
running 05/28/2018 13:58:24 May 28 09:58 am May 28 6:58 am
running 05/28/2018 12:58:40 May 28 08:58 am May 28 5:58 am
running 05/28/2018 11:58:56 May 28 07:58 am May 28 4:58 am
running 05/28/2018 06:58:08 May 28 02:58 am May 27 11:58 pm
running 05/28/2018 02:59:12 May 27 10:59 pm May 27 7:59 pm
running 05/28/2018 00:59:44 May 27 08:59 pm May 27 5:59 pm
running 05/28/2018 00:00:00 May 27 08:00 pm May 27 5:00 pm
running 05/27/2018 22:58:08 May 27 06:58 pm May 27 3:58 pm
running 05/27/2018 21:58:24 May 27 05:58 pm May 27 2:58 pm
running 05/27/2018 20:58:40 May 27 04:58 pm May 27 1:58 pm
running 05/27/2018 19:58:56 May 27 03:58 pm May 27 12:58 pm
running 05/27/2018 18:59:12 May 27 02:59 pm May 27 11:59 am
running 05/27/2018 16:59:44 May 27 12:59 pm May 27 9:59 am
running 05/27/2018 16:00:00 May 27 12:00 pm May 27 9:00 am
running 05/27/2018 13:58:24 May 27 09:58 am May 27 6:58 am
running 05/27/2018 12:58:40 May 27 08:58 am May 27 5:58 am
running 05/27/2018 10:59:12 May 27 06:59 am May 27 3:59 am
running 05/27/2018 09:59:28 May 27 05:59 am May 27 2:59 am
running 05/27/2018 08:00:00 May 27 04:00 am May 27 1:00 am
too low 05/27/2018 01:59:28 May 26 09:59 pm May 26 6:59 pm
too low 05/27/2018 00:00:00 May 26 08:00 pm May 26 5:00 pm
running 05/26/2018 22:58:08 May 26 06:58 pm May 26 3:58 pm
running 05/26/2018 20:58:40 May 26 04:58 pm May 26 1:58 pm
running 05/26/2018 18:59:12 May 26 02:59 pm May 26 11:59 am
running 05/26/2018 17:59:28 May 26 01:59 pm May 26 10:59 am
running 05/26/2018 16:00:00 May 26 12:00 pm May 26 9:00 am
running 05/26/2018 14:58:08 May 26 10:58 am May 26 7:58 am
running 05/26/2018 12:58:40 May 26 08:58 am May 26 5:58 am

Report - Reports of Related Gauges

Reports give the public a chance to report on river conditions throughout the country as well as log the history of a river.

Reports

No Reports Filed

Linked Reaches

Click a heading to sort. Hover over a heading for help.
River Name/Section Class Level running? Updated
Pit [CA] 2) Pit 1: Fall River Mills to Pit River Campground (Pit Fall... III-IV ~ 638 cfs
-19 cfs/hr
R0-
Lower Runnable
04h45m